Location: Gila Cliff Dwellings National Monument
(33.2240°N, 108.2417°W)
Time: 20:13:29
(UTC-06:00)

Cosmos 2322 Rocket - Visible Passes

Search period start: 26 May 2017 00:00
Search period end: 05 June 2017 00:00
Orbit: 832 x 852 km, 71.0° (Epoch: 26 May)

Date Brightness Start Highest point End Pass type
(mag) Time Alt. Az. Time Alt. Az. Time Alt. Az.
26 May 3.3 00:41:52 10° NNW 00:45:35 40° N 00:45:35 40° N visible
27 May 3.3 00:26:53 10° NNW 00:30:47 42° N 00:30:47 42° N visible
28 May 3.2 00:11:55 10° NNW 00:16:01 43° NNE 00:16:01 43° NNE visible
28 May 4.7 01:57:44 10° WNW 01:57:49 10° WNW 01:57:49 10° WNW visible
28 May 3.1 23:56:56 10° N 00:01:16 44° NNE 00:01:16 44° NNE visible
29 May 4.6 01:42:33 10° WNW 01:43:04 12° WNW 01:43:04 12° WNW visible
29 May 3.0 23:41:58 10° N 23:46:33 45° NE 23:46:33 45° NE visible
30 May 4.6 01:27:23 10° WNW 01:28:22 13° WNW 01:28:22 13° WNW visible
30 May 2.9 23:27:00 10° N 23:31:52 45° NE 23:31:52 45° NE visible
31 May 4.5 01:12:13 10° WNW 01:13:41 15° WNW 01:13:41 15° WNW visible
31 May 2.8 23:12:02 10° N 23:17:13 44° ENE 23:17:13 44° ENE visible
01 Jun 4.3 00:57:05 10° NW 00:59:02 17° WNW 00:59:02 17° WNW visible
01 Jun 2.8 22:57:04 10° N 23:02:28 42° ENE 23:02:36 42° ENE visible
02 Jun 4.2 00:41:57 10° NW 00:44:25 19° WNW 00:44:25 19° WNW visible
02 Jun 2.8 22:42:06 10° N 22:47:27 40° ENE 22:48:01 39° E visible
03 Jun 4.1 00:26:50 10° NW 00:29:50 21° W 00:29:50 21° W visible
03 Jun 2.9 22:27:09 10° N 22:32:26 38° ENE 22:33:28 35° E visible
04 Jun 3.9 00:11:44 10° NW 00:15:17 23° W 00:15:17 23° W visible
04 Jun 3.0 22:12:12 10° N 22:17:25 36° ENE 22:18:56 31° E visible
